Track EAGLESAT-1 now! 10-day predictions EAGLESAT-1 is classified as:
1 43018U 17073F 21108.82639425 .00001547 00000-0 12146-3 0 9999 2 43018 97.7113 15.9636 0253173 131.6281 230.6922 14.80417773184222